Temperature
15 14 14 14 14 14 14 14 14 15 15 16 17 17 17 18 18 18 18 18 18 18 18 18 18 17 17 17 17 17 17 17 17 17 18 18 18 18 18 18 18 18 18
14 14 14 13 13 13 13 13 13 14 14 15 15 16 16 17 17 17 17 17 17 17 17 17 18 17 17 17 17 17 17 17 17 17 17 17 18 17 18 17 17 18 18
14 13 13 13 13 12 12 13 13 13 13 14 14 15 15 16 16 16 16 17 17 17 17 17 17 17 17 17 17 17 17 17 17 17 17 17 18 18 18 18 17 17 18
13 13 12 12 12 12 12 12 12 12 13 13 14 14 14 15 15 15 16 16 17 17 17 17 17 17 17 17 17 17 17 16 16 16 16 17 17 17 17 17 17 18 17
13 12 12 12 12 12 12 12 12 12 13 13 13 13 14 14 14 15 15 16 16 16 16 16 16 16 16 16 16 16 16 16 16 16 16 16 16 16 16 17 17 17 17
12 12 12 12 12 12 12 12 12 12 13 13 13 13 13 14 14 14 15 15 15 16 16 16 16 16 16 16 16 16 16 16 16 16 16 16 15 16 16 16 16 16 17
12 12 12 11 11 11 12 12 12 12 12 13 13 13 13 13 14 14 14 15 15 15 15 15 16 16 16 16 16 16 16 16 16 16 16 15 15 15 15 15 15 15 16
12 12 11 11 11 11 11 12 12 12 12 12 12 13 13 13 13 13 14 14 14 14 15 15 15 15 15 15 16 16 16 16 15 15 15 15 15 15 15 15 15 15 15
13 12 12 12 11 11 11 11 11 11 12 12 12 13 13 13 13 13 13 13 14 14 14 14 14 15 15 15 15 15 15 15 15 15 15 15 15 15 14 14 14 14 14
13 12 12 12 11 11 11 11 11 11 11 12 12 12 12 13 13 13 13 13 13 13 13 14 14 14 14 14 14 14 15 15 15 15 14 14 14 14 14 14 14 14 14
13 13 12 12 12 11 11 11 11 11 11 11 12 12 12 12 12 13 13 13 13 13 13 13 13 13 13 13 14 14 14 14 14 14 14 14 14 14 14 14 14 14 14
14 13 13 12 12 12 11 11 11 11 11 11 11 11 12 12 12 12 12 13 13 13 13 13 13 13 13 13 13 13 13 13 13 13 13 13 13 13 13 14 13 14 14
14 14 13 13 12 12 12 11 11 11 11 11 11 11 11 11 11 12 12 12 12 12 12 12 13 13 13 13 13 13 13 13 13 13 13 13 13 13 13 13 13 13 13
14 14 13 13 13 12 12 12 11 11 11 11 11 11 11 11 11 11 11 11 12 12 12 12 12 12 12 13 13 13 13 13 13 13 13 13 13 13 13 13 13 13 13
15 14 14 13 13 13 12 12 11 11 11 10 10 10 10 10 10 11 11 11 11 11 11 12 12 12 12 12 13 13 12 12 12 13 13 13 13 13 13 13 13 13 14
15 14 14 14 13 13 12 12 11 11 11 11 10 10 10 10 10 10 10 11 11 11 11 11 11 11 12 12 12 12 12 12 12 12 13 13 13 13 13 13 13 13 13
14 14 14 14 13 13 12 12 12 11 11 11 10 10 10 10 10 10 10 10 10 11 11 11 11 11 11 11 12 12 12 12 12 12 13 13 13 13 13 14 14 14 14
14 14 14 14 13 13 13 12 12 11 11 11 10 10 10 10 10 10 10 10 10 10 10 10 10 10 11 11 11 12 11 12 12 12 12 13 13 13 13 13 13 13 13
14 14 14 14 14 13 13 12 12 12 11 11 11 10 10 10 10 10 10 10 10 10 10 10 10 10 10 10 11 11 11 11 12 12 12 12 12 13 13 13 13 13 13
14 14 14 13 13 13 13 13 12 12 11 11 11 10 10 10 10 10 10 10 10 9 9 9 9 9 10 10 10 10 10 11 11 11 12 12 12 13 13 13 13 13 13
14 14 14 13 13 13 13 13 12 12 12 11 11 10 10 10 10 10 10 9 9 9 9 9 9 9 9 9 10 10 10 10 10 11 11 12 12 13 13 13 13 13 13
14 14 14 14 14 13 13 13 12 12 12 11 11 10 10 10 10 10 10 9 9 9 9 9 9 9 9 9 9 10 10 10 10 11 11 11 12 12 13 13 13 13 13
14 14 14 14 13 13 13 13 13 12 12 11 11 10 10 10 10 10 9 9 9 9 9 9 8 9 9 9 9 9 9 10 10 11 11 11 12 12 12 13 13 13 12
15 15 14 14 14 14 13 13 13 12 12 11 11 11 10 10 10 10 9 9 9 9 9 8 8 8 9 9 9 9 9 9 10 10 11 11 11 12 12 12 12 12 12
15 15 15 14 14 14 13 13 13 12 12 11 11 11 10 10 10 10 10 9 9 9 9 8 8 9 9 9 9 9 9 10 10 10 10 11 11 11 11 12 12 12 12
15 15 15 15 14 14 14 14 13 13 12 12 11 11 11 10 10 10 10 10 9 9 9 9 9 9 9 9 9 9 10 10 10 10 10 10 11 11 11 11 12 12 11
Wind_Speed
15 14 14 13 12 11 11 11 11 10 9 7 7 6 6 6 6 7 10 12 13 12 10 8 9 8 8 9 9 8 9 8 8 8 8 8 10 9 7 8 7 8 7
16 15 15 14 13 12 12 11 11 11 10 7 7 6 7 7 7 6 8 11 12 12 10 10 9 9 8 9 8 7 6 7 7 7 6 7 9 8 10 9 8 9 8
16 17 16 15 14 13 12 11 11 11 10 9 7 7 6 6 5 6 7 8 11 12 11 11 10 10 9 8 9 9 8 7 6 7 6 6 7 5 8 10 10 10 8
16 16 16 16 14 13 12 11 10 10 10 9 8 8 7 6 6 6 5 7 8 10 12 11 11 10 9 10 10 10 8 7 6 5 5 5 3 3 4 6 8 9 9
16 15 15 14 14 13 12 11 11 10 10 9 8 8 7 6 6 5 5 4 5 6 8 10 10 10 10 11 11 11 11 9 8 6 5 5 4 6 5 4 5 6 8
15 15 14 14 13 13 12 12 12 11 11 10 9 8 8 7 6 5 3 2 1 2 4 6 8 9 9 11 11 11 12 10 10 8 7 6 5 5 5 6 5 4 4
14 15 16 16 15 14 13 13 13 12 12 11 10 10 9 7 6 5 4 3 1 0 2 3 5 6 7 8 9 10 11 11 11 11 9 8 7 4 5 5 5 4 3
13 14 14 14 13 13 13 13 13 12 12 12 11 10 10 7 6 6 5 4 3 2 1 1 2 3 4 5 7 7 8 9 11 11 11 8 8 7 6 5 5 5 5
12 13 13 13 13 13 13 13 13 13 12 12 12 11 11 10 9 8 6 5 4 4 4 2 2 1 1 3 4 5 6 6 8 8 10 8 7 7 7 6 6 6 5
12 12 12 12 12 11 11 11 12 12 12 12 11 9 11 11 10 9 9 8 7 6 5 4 4 3 2 1 1 2 3 5 5 4 6 6 5 6 6 5 5 4 4
11 11 10 9 10 11 11 11 11 12 12 12 11 11 11 11 11 10 10 9 8 7 7 6 5 4 3 2 1 1 3 4 5 5 5 5 5 5 4 4 4 4 4
10 10 10 10 10 10 10 11 11 11 11 11 11 11 11 12 12 12 11 10 10 9 8 7 7 6 5 4 3 1 1 3 4 4 5 6 5 5 5 5 5 5 5
10 10 10 9 10 10 10 11 11 11 11 11 11 11 12 12 12 12 11 11 10 10 10 9 8 7 6 5 4 3 1 1 2 3 4 4 5 5 4 5 5 4 4
9 10 9 9 9 9 9 10 10 10 10 11 11 11 11 11 11 11 11 11 11 11 11 10 9 8 7 7 5 3 3 2 1 2 2 3 3 4 4 4 5 5 5
9 10 10 9 8 8 8 8 9 10 10 10 11 11 10 10 11 11 11 11 11 11 11 10 10 10 9 9 8 4 3 3 2 1 0 1 1 1 2 3 5 6 5
9 10 9 9 8 7 7 7 8 9 9 10 10 9 9 9 10 10 10 11 11 11 11 10 10 10 10 11 11 7 3 3 2 2 1 1 3 4 4 2 1 2 4
8 9 9 8 7 7 6 6 6 7 8 9 9 9 9 9 9 9 10 10 10 10 10 10 10 10 12 13 11 8 4 4 3 2 1 0 1 3 5 7 6 4 4
7 8 8 8 7 6 5 4 4 5 7 8 9 9 9 8 8 9 9 9 9 9 9 9 10 9 12 15 12 8 4 4 4 3 1 1 1 1 4 8 8 7 6
6 6 7 7 6 6 5 3 3 5 6 7 8 8 8 8 9 9 9 9 8 8 8 9 9 10 11 15 14 9 4 4 4 4 3 1 2 2 1 7 10 10 8
4 5 5 6 6 6 5 3 3 4 5 6 6 7 7 8 8 8 8 8 7 8 7 8 9 9 10 14 15 11 4 4 4 3 4 5 4 2 1 6 9 10 10
2 3 4 4 5 6 4 3 3 4 4 4 4 5 6 7 7 7 7 7 7 7 8 8 8 9 10 12 14 13 5 4 3 3 3 4 5 4 2 1 6 9 10
1 2 3 3 4 5 4 3 3 3 2 3 3 4 5 5 6 6 7 7 7 7 8 8 8 8 9 10 11 12 10 6 4 4 3 5 5 5 4 4 10 9 8
2 1 2 2 3 4 4 3 2 1 2 3 3 3 4 4 5 5 6 6 7 7 7 7 7 7 8 8 10 9 9 8 5 5 7 7 5 5 7 10 9 7 7
3 2 2 2 2 3 3 3 1 2 3 3 2 1 2 3 4 4 5 5 6 7 7 7 8 7 8 9 9 7 5 4 5 6 7 8 8 7 9 8 6 5 5
4 3 2 1 1 2 2 2 1 2 3 4 3 2 1 1 2 3 3 4 5 5 6 7 7 7 8 9 11 8 6 5 4 4 5 5 6 6 6 6 6 6 6
5 4 3 3 2 1 1 1 1 2 3 3 3 2 1 1 1 2 1 2 1 2 3 6 7 6 7 9 9 10 10 8 5 4 7 6 6 6 6 6 6 6 6
Wind_Direction
353 354 350 347 342 341 340 339 338 338 334 328 323 312 300 289 271 260 252 241 239 239 236 234 234 223 217 216 214 209 211 218 225 232 229 224 227 230 213 226 228 222 212
352 353 350 348 343 341 339 335 337 336 334 327 315 299 295 283 275 265 255 244 236 231 229 226 227 221 213 210 207 201 207 212 218 225 233 233 223 224 230 225 230 235 209
352 351 350 347 344 343 340 335 335 333 334 330 321 314 304 289 277 267 256 244 233 226 225 226 223 218 210 209 202 197 204 207 213 226 224 229 229 220 217 221 223 231 228
354 352 349 348 346 342 337 335 335 336 337 333 331 326 314 305 298 288 269 252 236 226 220 223 222 214 211 209 206 199 199 195 201 215 234 246 272 223 216 212 223 224 225
356 354 352 349 349 345 341 341 340 341 340 337 337 330 323 311 304 300 284 265 241 228 221 220 220 216 214 214 211 202 200 199 197 194 200 224 244 247 244 231 213 212 219
358 358 359 358 355 353 354 354 353 352 349 347 349 347 339 333 331 332 320 296 254 228 221 218 218 219 218 216 211 207 205 205 204 198 193 195 205 215 224 235 239 233 217
2 3 4 4 2 0 1 1 2 1 0 0 1 355 349 348 354 353 351 359 4 358 207 210 218 218 218 216 211 209 209 207 206 206 204 205 209 197 203 221 232 237 230
6 6 5 5 6 6 5 7 5 6 5 5 3 3 1 358 6 11 12 22 20 13 37 144 199 210 212 213 212 214 211 209 210 212 209 209 210 204 204 209 207 218 222
8 7 6 7 9 10 8 8 8 10 9 10 10 10 11 14 16 19 23 26 30 35 44 61 81 124 190 210 213 213 209 207 210 211 209 206 204 201 206 210 210 212 215
9 10 9 5 7 9 8 10 12 11 9 12 15 15 16 21 21 25 29 28 29 34 44 52 64 70 85 133 189 198 196 195 194 196 198 198 198 195 197 200 203 208 210
3 5 6 3 5 9 13 14 16 15 12 13 19 23 24 26 28 30 29 28 30 31 37 38 46 54 60 67 86 147 176 182 174 171 175 177 171 177 184 190 191 195 200
359 3 5 6 10 12 13 18 19 18 16 16 23 27 28 30 32 33 31 32 35 34 37 43 42 41 43 48 50 60 174 173 163 161 167 167 168 175 180 184 190 192 194
358 3 5 9 10 13 17 21 22 19 19 22 26 29 34 35 35 34 35 36 37 38 37 40 42 38 35 38 43 47 55 104 141 162 175 176 174 178 186 190 192 193 189
1 3 2 8 11 12 17 21 22 21 20 25 29 32 34 36 37 38 38 39 39 39 38 37 37 36 33 28 28 37 48 54 88 155 163 178 186 188 191 192 191 189 181
359 1 360 1 6 11 15 20 20 20 21 26 30 30 33 36 38 39 39 39 38 40 39 38 37 35 33 25 15 20 34 40 34 39 126 197 200 219 209 203 192 188 183
353 353 356 357 360 5 8 14 18 19 22 27 29 28 30 34 35 36 37 37 37 37 37 35 34 36 32 24 23 12 45 48 35 19 349 219 197 191 183 164 125 175 187
342 347 352 355 353 359 360 6 13 15 22 28 28 27 29 31 31 33 33 32 35 35 33 31 30 32 27 23 26 18 33 59 59 54 36 356 128 183 160 150 150 116 61
337 344 346 350 349 354 358 3 15 17 25 29 30 30 29 30 31 31 30 28 29 32 30 29 28 29 26 20 20 6 46 64 62 62 61 61 114 156 164 160 146 125 105
330 336 340 343 350 358 354 356 25 32 34 33 32 32 31 31 30 29 28 26 26 29 31 30 26 25 25 19 15 0 48 62 65 64 67 68 121 73 243 157 137 121 102
325 336 341 350 4 8 360 1 27 38 43 39 37 36 35 33 30 27 24 24 26 27 30 35 30 28 24 20 16 4 31 52 63 72 84 66 70 91 299 156 143 133 126
318 327 338 357 5 0 1 20 35 45 54 58 52 44 42 38 32 27 24 22 27 28 30 34 33 32 27 21 21 14 22 37 58 72 85 80 74 87 32 94 133 129 133
278 321 337 1 7 3 2 28 44 54 90 97 78 57 47 40 38 35 30 28 25 28 30 30 29 24 26 24 19 22 26 15 62 62 71 80 78 88 75 93 108 122 133
226 287 321 336 4 15 7 17 43 120 154 141 111 78 63 53 41 36 33 32 28 26 26 25 22 20 18 20 20 25 33 29 53 65 66 71 79 107 102 104 123 145 138
211 238 276 316 7 12 7 5 10 190 182 169 153 125 68 58 52 38 30 30 27 21 20 19 15 13 20 16 7 9 35 65 76 86 92 91 82 90 99 121 132 131 125
203 218 245 285 324 349 360 4 330 214 197 185 181 180 108 46 34 42 31 21 38 25 5 7 8 10 12 8 359 4 20 32 51 84 97 98 104 102 104 107 107 114 124
201 209 219 237 254 302 340 1 315 243 224 204 197 202 205 224 330 359 70 148 336 49 32 19 5 32 25 5 13 22 26 27 15 81 89 86 88 95 101 105 105 106 112
Height
1563 1560 1556 1553 1549 1546 1543 1540 1537 1534 1531 1529 1527 1525 1524 1523 1523 1523 1524 1525 1528 1530 1532 1533 1535 1537 1539 1542 1544 1547 1549 1552 1555 1557 1558 1559 1560 1562 1563 1564 1565 1566 1567
1562 1559 1555 1551 1547 1544 1541 1538 1535 1532 1528 1526 1523 1521 1519 1518 1518 1518 1519 1520 1522 1524 1526 1528 1530 1532 1534 1536 1539 1542 1544 1547 1550 1553 1555 1556 1557 1557 1559 1560 1561 1563 1564
1562 1558 1554 1550 1546 1542 1538 1535 1532 1529 1526 1523 1520 1518 1516 1514 1514 1514 1514 1514 1516 1518 1520 1522 1524 1526 1529 1531 1533 1536 1538 1542 1545 1548 1550 1552 1552 1553 1555 1556 1558 1559 1561
1562 1558 1553 1548 1544 1541 1537 1534 1531 1527 1524 1521 1518 1515 1513 1512 1510 1510 1509 1509 1510 1512 1514 1516 1519 1521 1523 1526 1528 1531 1533 1536 1539 1541 1544 1547 1548 1550 1551 1553 1554 1555 1557
1562 1558 1553 1548 1544 1539 1535 1532 1529 1526 1522 1519 1516 1513 1511 1509 1507 1506 1505 1505 1506 1507 1509 1512 1514 1516 1518 1521 1523 1525 1528 1530 1533 1535 1538 1541 1543 1546 1548 1549 1550 1551 1553
1563 1558 1553 1548 1543 1539 1535 1531 1528 1524 1521 1518 1515 1512 1510 1507 1505 1504 1503 1502 1503 1504 1505 1507 1509 1511 1514 1516 1519 1521 1523 1525 1528 1530 1532 1535 1538 1540 1543 1545 1546 1548 1549
1563 1559 1553 1548 1543 1539 1535 1531 1527 1524 1520 1517 1514 1511 1509 1506 1504 1503 1502 1501 1501 1502 1503 1504 1506 1507 1510 1512 1514 1516 1518 1520 1522 1524 1526 1529 1532 1535 1537 1540 1541 1543 1545
1564 1560 1555 1550 1545 1540 1536 1532 1528 1524 1521 1518 1514 1512 1509 1506 1504 1503 1502 1501 1501 1501 1501 1502 1503 1504 1506 1508 1510 1512 1514 1516 1518 1520 1522 1524 1526 1529 1531 1534 1536 1538 1540
1566 1561 1557 1552 1547 1543 1538 1534 1530 1526 1522 1519 1516 1512 1510 1507 1505 1504 1503 1502 1501 1501 1501 1501 1502 1503 1503 1505 1507 1508 1510 1512 1514 1515 1517 1519 1522 1524 1526 1529 1531 1535 1535
1567 1563 1559 1554 1550 1546 1541 1537 1532 1528 1524 1521 1517 1514 1511 1509 1507 1506 1504 1503 1503 1502 1502 1502 1502 1502 1503 1503 1505 1506 1507 1509 1510 1512 1514 1516 1518 1520 1522 1524 1527 1530 1532
1568 1564 1560 1556 1552 1548 1544 1539 1535 1531 1527 1523 1520 1517 1514 1511 1509 1507 1506 1505 1504 1504 1504 1503 1503 1503 1503 1503 1503 1504 1506 1507 1508 1510 1512 1514 1515 1517 1519 1521 1523 1525 1528
1569 1565 1562 1558 1554 1550 1546 1542 1538 1534 1530 1526 1523 1520 1517 1514 1512 1510 1508 1507 1506 1505 1505 1504 1504 1503 1503 1503 1503 1504 1505 1506 1507 1509 1511 1512 1514 1516 1518 1520 1521 1524 1526
1569 1566 1562 1559 1555 1552 1548 1545 1541 1537 1533 1530 1526 1523 1520 1517 1515 1513 1511 1509 1508 1507 1506 1505 1505 1504 1504 1504 1504 1504 1505 1506 1507 1508 1509 1511 1513 1515 1517 1519 1521 1523 1525
1569 1566 1563 1560 1557 1554 1550 1547 1544 1540 1536 1533 1530 1526 1523 1521 1518 1516 1513 1512 1510 1509 1508 1507 1506 1505 1505 1505 1504 1505 1505 1505 1506 1507 1509 1511 1513 1514 1516 1518 1520 1522 1524
1569 1567 1564 1561 1558 1555 1552 1549 1546 1542 1539 1536 1533 1529 1527 1524 1522 1519 1517 1515 1513 1511 1510 1508 1507 1506 1506 1505 1505 1505 1505 1506 1506 1507 1509 1510 1512 1514 1516 1518 1519 1521 1523
1570 1567 1564 1561 1558 1556 1553 1550 1548 1545 1542 1538 1535 1532 1530 1527 1525 1522 1520 1518 1515 1513 1512 1510 1509 1507 1506 1505 1505 1505 1505 1506 1506 1507 1508 1510 1511 1513 1515 1517 1518 1520 1522
1569 1567 1564 1562 1559 1556 1554 1551 1549 1546 1544 1541 1538 1535 1532 1530 1527 1525 1523 1520 1518 1516 1514 1512 1510 1509 1507 1506 1505 1505 1505 1505 1506 1506 1507 1509 1511 1513 1515 1516 1518 1519 1521
1569 1567 1564 1562 1559 1557 1554 1552 1550 1548 1546 1543 1540 1537 1534 1532 1530 1527 1525 1523 1521 1518 1516 1514 1512 1510 1508 1507 1505 1505 1505 1505 1505 1506 1507 1509 1510 1513 1515 1516 1518 1520 1521
1568 1566 1564 1562 1559 1557 1555 1553 1551 1549 1547 1544 1542 1539 1537 1534 1532 1530 1527 1525 1522 1520 1518 1516 1513 1511 1509 1507 1506 1505 1505 1505 1505 1506 1507 1509 1510 1512 1514 1517 1518 1520 1522
1567 1565 1563 1561 1559 1557 1555 1553 1552 1550 1548 1546 1544 1541 1539 1537 1534 1532 1529 1527 1525 1522 1520 1518 1515 1513 1511 1508 1507 1505 1505 1505 1506 1506 1508 1509 1511 1513 1514 1517 1519 1521 1523
1566 1564 1563 1561 1559 1557 1555 1554 1553 1551 1549 1547 1545 1543 1541 1539 1536 1534 1531 1529 1527 1524 1522 1520 1518 1515 1512 1510 1508 1506 1506 1505 1506 1507 1508 1509 1511 1513 1515 1518 1520 1522 1524
1565 1564 1563 1561 1559 1557 1556 1555 1553 1551 1550 1548 1547 1545 1543 1541 1538 1536 1533 1531 1529 1527 1525 1523 1520 1517 1515 1512 1510 1508 1507 1506 1507 1507 1508 1510 1512 1514 1516 1519 1521 1523 1525
1564 1563 1562 1561 1559 1557 1556 1555 1553 1551 1550 1549 1548 1546 1544 1542 1540 1538 1536 1533 1531 1529 1527 1525 1522 1520 1517 1514 1512 1510 1509 1508 1508 1508 1509 1511 1513 1515 1517 1519 1522 1524 1527
1562 1562 1561 1560 1559 1557 1556 1554 1553 1552 1551 1550 1549 1548 1546 1544 1542 1540 1538 1535 1533 1531 1529 1526 1524 1522 1519 1517 1514 1513 1512 1511 1510 1511 1511 1512 1514 1516 1518 1520 1523 1526 1528
1560 1560 1560 1559 1558 1557 1555 1554 1553 1552 1551 1551 1550 1549 1547 1546 1544 1541 1539 1537 1534 1532 1530 1528 1526 1523 1521 1519 1516 1515 1514 1513 1513 1513 1514 1515 1516 1518 1519 1522 1524 1526 1529
1558 1558 1558 1557 1557 1556 1554 1553 1552 1551 1551 1551 1550 1549 1548 1546 1545 1543 1541 1538 1536 1533 1531 1529 1527 1525 1523 1521 1519 1518 1516 1516 1516 1516 1517 1517 1518 1520 1522 1524 1526 1528 1530